Regional Weather Roundup
Issued by NWS Upton, NY

Home | Current Version | Previous Version | Text Only | Print | Product List | Glossary On
Versions: 1 2 3 4 5 6 7 8 9 10 11 12 13 14 15 16 17 18 19 20 21 22 23 24 25 26 27 28 29 30 31 32 33 34 35 36 37 38 39 40 41 42 43 44 45 46 47 48 49 50
000
ASUS41 KOKX 251005
RWROKX

REGIONAL WEATHER ROUNDUP
NATIONAL WEATHER SERVICE NEW YORK NY
600 AM EDT FRI JUL 25 2014

NOTE: "FAIR" INDICATES FEW OR NO CLOUDS BELOW 12,000 FEET WITH NO
SIGNIFICANT WEATHER AND/OR OBSTRUCTIONS TO VISIBILITY.

NYZ071-072-176-178-NJZ106-104-251100-
NEW YORK CITY METRO AREA


CITY           SKY/WX    TMP DP  RH WIND       PRES   REMARKS
CENTRAL PARK   PTCLDY    67  53  61 VRB7      30.00R
LAGUARDIA APRT PTCLDY    67  54  63 N9        29.96R
KENNEDY INTL   PTCLDY    67  53  61 N10       29.97R
NEWARK/LIBERTY MOCLDY    66  54  65 N10       29.97R
BRNX BOT. GARD   N/A     64  52  63 NW5       29.98R
TETERBORO      MOCLDY    66  53  63 NW3       29.97R
$$

NYZ177-179-078>081-251100-
LONG ISLAND NEW YORK

CITY           SKY/WX    TMP DP  RH WIND       PRES   REMARKS
FARMINGDALE    PTCLDY    64  55  72 N9        29.96R
ISLIP          PTCLDY    66  56  70 N8        29.94R
SHIRLEY        CLEAR     65  57  75 N6        29.96R
WESTHAMPTON    CLEAR     63  58  83 N7        29.96R
MONTAUK POINT    N/A     67  63  87 N6        29.95R
$$

NYZ052-065-067-251100-
HUDSON VALLEY

CITY           SKY/WX    TMP DP  RH WIND       PRES   REMARKS
WHITE PLAINS   PTCLDY    62  52  69 N7        29.97R
NEWBURGH       CLEAR     55  54  94 CALM      30.00S
MONTGOMERY     CLEAR     53  51  93 CALM      30.00R
POUGHKEEPSIE   CLEAR     55  53  93 CALM      29.99R
ALBANY         CLEAR     54  50  86 E3        30.01R
$$

NJZ001-105-106-008-010-013-015-019>022-104-251100-
NEW JERSEY

CITY           SKY/WX    TMP DP  RH WIND       PRES   REMARKS
NEWARK/LIBERTY MOCLDY    66  54  65 N10       29.97R
TETERBORO      MOCLDY    66  53  63 NW3       29.97R
CALDWELL       CLEAR     60  53  77 CALM      29.98R
MORRISTOWN     CLEAR     59  54  82 CALM      29.98R
SOMERVILLE     PTCLDY    58  54  86 MISG      29.96R
LINDEN         FAIR      67  54  62 N3        29.99R
SUSSEX         CLEAR     54  50  86 CALM      30.00R
ANDOVER          N/A     53  52  96 CALM      30.01R
TRENTON        PTCLDY    60  52  74 N6        29.97R
MILLVILLE      CLEAR     61  54  77 NW5       29.97R
ATLANTIC CITY  CLEAR     60  54  80 NW5       29.96R
WRIGHTSTOWN    CLEAR     60  54  79 NW5       29.95R
TOMS RIVER     CLEAR     59  54  82 CALM      29.96R
BELMAR         CLEAR     63  52  67 NW5       29.96R
$$

PAZ047>061-062-071-251100-
EASTERN PENNSYLVANIA

CITY           SKY/WX    TMP DP  RH WIND       PRES   REMARKS
PHILADELPHIA   PTCLDY    63  51  65 N7        29.98R
ALLENTOWN      CLEAR     55  50  83 CALM      30.00R
SCRANTON       CLEAR     51  47  86 E3        30.04R
$$

CTZ002-004>006-009-010-012-RIZ004-006-007-MAZ004-011-015-251100-
SOUTHERN NEW ENGLAND
 IN CT

CITY           SKY/WX    TMP DP  RH WIND       PRES   REMARKS
BRADLEY INTL   PTCLDY    56  53  90 NW5       29.97R
HARTFORD       CLEAR     59  55  87 CALM      29.97R
DANBURY        CLEAR     56  52  86 CALM      30.00R
WTRBRY/OXFORD  CLEAR     57  50  77 N5        30.00R
BRIDGEPORT     CLEAR     64  55  72 N7        29.96R
MERIDEN        CLEAR     58  55  90 CALM      29.98R
NEW HAVEN      PTCLDY    62  55  77 N5        29.96S
CHESTER        FAIR      61  55  82 N5        29.98R
GROTON         CLEAR     61  58  90 N8        29.94R
WILLIMANTIC    CLEAR     57  54  89 CALM      29.97S

 IN RI

CITY           SKY/WX    TMP DP  RH WIND       PRES   REMARKS
PROVIDENCE     PTCLDY    63  53  70 NW8       29.95R
BLOCK ISLAND   MOCLDY    64  57  77 N6        29.94S
WESTERLY       CLEAR     63  57  81 N5        29.95R

 IN MA

CITY           SKY/WX    TMP DP  RH WIND       PRES   REMARKS
BOSTON         PTCLDY    62  52  69 NW12      29.94R
WORCESTER      CLEAR     55  49  80 NW8       29.97S
WESTFIELD      CLEAR     55  52  89 CALM      29.98R
PROVINCETOWN   CLOUDY    63  59  88 NW9       29.93R
NANTUCKET      MOCLDY    65  61  87 N7        29.91R
$$

ANZ330-335-338-340-345-350-353-355-251100-
COASTAL MARINE OBSERVATIONS


STATION/POSITION TIME  SKY/WX   TEMP    WIND        PRES    VSBY  WAVE
                                AIR SEA DIR/SP/G                  HT/PER
                 (UTC)          (F)     (DEG/KT/KT) (MB)    (MI)  (FT/S)
NY HARB ENTRANCE NOT AVBL
4S FIRE IS       NOT AVBL
23SW MTP         1000            68 71              1013.0          2/ 8
HUDSON CANYON    1000            72 74   10/ 12/ 14 1012.8          2/ 8
EXECUTION ROCKS  1000            67 71   30/ 10/ 12   N/A
WESTERN LI SOUND 1000            66      20/ 12/ 14   N/A           1/ 2
CENTRAL LI SOUND 0900            67 72  350/ 14/ 16   N/A           2/ 3
EASTERN LI SOUND 0900            65 67   10/ 10/ 14   N/A
ROBBINS REEF     1000            67     360/ 12/ 15   N/A
$$


>>>>>>>>>>>>>>>>>>>>>>>>>>>> KEY <<<<<<<<<<<<<<<<<<<<<<<<<<<
>                                                          <
>     SKY/WX - SKY CONDITION/PRESENT WEATHER               <
>     TMP    - TEMPERATURE IN FAHRENHEIT                   <
>     DP     - DEWPOINT IN FAHRENHEIT                      <
>     RH     - RELATIVE HUMIDITY IN PERCENT                <
>     WIND   - DIRECTION AND SPEED IN MPH                  <
>     PRES   - MEAN SEA LEVEL PRESSURE IN INCHES OF HG     <
>     WCI    - WIND CHILL INDEX                            <
>     VSB    - VISIBILITY IN MILES                         <
>     HX     - HEAT INDEX                                  <
>     TC     - TEMPERATURE IN CELSIUS                      <
>     VRB    - VARIABLE WIND DIRECTION                     <
>                                                          <
>>>>>>>>>>>>>>>>>>>>>>>>>>>> KEY <<<<<<<<<<<<<<<<<<<<<<<<<<<




USA.gov is the U.S. government's official web portal to all federal, state and local government web resources and services.